Regional Weather Roundup
Issued by NWS

Home | Current Version | Previous Version | Text Only | Print | Product List | Glossary On
Versions: 1 2 3 4 5 6 7 8 9 10 11 12 13 14 15 16 17 18 19 20 21 22 23 24 25 26 27 28 29 30 31 32 33 34 35 36 37 38 39 40 41 42 43 44 45 46 47 48 49 50
000
ASHW40 PHFO 190630
RWRHI

WEATHER ROUNDUP FOR HAWAII
NATIONAL WEATHER SERVICE HONOLULU HI
800 PM HST THU SEP 18 2014

THIS IS AN AUTOMATED REPORT THAT HAS NOT BEEN QUALITY CONTROLLED.

NOTE..."FAIR" INDICATES FEW OR NO CLOUDS BELOW 12,000 FEET WITH NO
SIGNIFICANT WEATHER AND/OR OBSTRUCTIONS TO VISIBILITY.

* - THESE SITES REPORT LIMITED FIELDS

HIZ001>004-190700-
KAUAI-NIIHAU-

CITY           SKY/WX    TMP DP  RH WIND       PRES   REMARKS
LIHUE APT      MOCLDY    79  72  78 NW3       29.96R
PORT ALLEN*      N/A     75 N/A N/A VRB6        N/A
POIPU*           N/A     77 N/A N/A N2          N/A
PRINCEVILLE*   NOT AVBL
KOKOLE POINT*    N/A     77 N/A N/A MISG        N/A
MOLOAA DAIRY*  NOT AVBL
WAIMEA HTS*    NOT AVBL
PUU OPAE*      NOT AVBL
PUU LUA*       NOT AVBL
MAKAHA RIDGE*  NOT AVBL
$$

HIZ005>011-190700-
OAHU-

CITY           SKY/WX    TMP DP  RH WIND       PRES   REMARKS
HONOLULU       PTCLDY    79  71  76 N3        29.94R
KALAELOA       MOCLDY    74  74 100 CALM      29.96R
KANEOHE MCB    MOCLDY    81  72  75 E3        29.95R
WHEELER FIELD  FAIR      73  70  89 CALM      29.97
BELLOWS*         N/A    N/A N/A N/A E8          N/A
KAHUKU*          N/A    N/A N/A N/A E2          N/A
WHEELER*       NOT AVBL
WAIANAE HARBOR NOT AVBL
DILLINGHAM*      N/A     75  70  83 CALM        N/A
KAHUKU TRN*      N/A     75  72  88 E3G9        N/A
KAWAILOA*      NOT AVBL
KII*             N/A     79  73  83 SE8         N/A
MAKUA RANGE*     N/A     75  72  88 E5          N/A
OAHU FOREST NW NOT AVBL
SCHOFIELD BRK*   N/A     72  70  94 CALM        N/A
SCHOFIELD S*   NOT AVBL
WAIANAE VLY*   NOT AVBL
KUAOKALA*      NOT AVBL
HONOULIUULI*   NOT AVBL
MOKUOLOE IS*     N/A    N/A N/A N/A MISG        N/A
PALEHUA*       NOT AVBL
WAIAWA PHB*    NOT AVBL
$$

HIZ012>013-190700-
MOLOKAI-

CITY           SKY/WX    TMP DP  RH WIND       PRES   REMARKS
MOLOKAI AIRPT  CLEAR     77  75  93 NE8       29.95R
KALAUPAPA      NOT AVBL
MAKAPULAPAI*   NOT AVBL
MOLOKAI 1*     NOT AVBL
PUU ALII*        N/A     61  60  98 E1          N/A
$$

HIZ016-190700-
KAHOOLAWE-

CITY           SKY/WX    TMP DP  RH WIND       PRES   REMARKS
KAHOOLAWE*     NOT AVBL
HAKIOAWA*      NOT AVBL
HONOKANAIA*      N/A     80  69  67 NE7       29.96R
KANELOA*         N/A     77  70  78 NE7G14    29.17
KEALIALALO*    NOT AVBL
LUA MAKIKA*    NOT AVBL
$$

HIZ014>015-190700-
LANAI-

CITY           SKY/WX    TMP DP  RH WIND       PRES   REMARKS
LANAI CITY     FAIR      73  73 100 NE6       30.01R
LANAI 1*       NOT AVBL
$$

HIZ017>028-190700-
MAUI-

CITY           SKY/WX    TMP DP  RH WIND       PRES   REMARKS
KAHULUI        PTCLDY    79  70  74 NE7       29.95R
KAPALUA-W MAUI NOT AVBL
HANA AIRPORT   PTCLDY    73  68  83 S3        29.99R
HANA*            N/A     75 N/A N/A S3          N/A
HALEAKALA SUMM   N/A     50   5  16 E9          N/A
MAALAEA BAY*   NOT AVBL
HALEAKALA*     NOT AVBL
KAUPO GAP*     NOT AVBL
KULA 1*          N/A     55  54  97 E2          N/A
$$

HIZ023>026-190700-
BIG ISLAND OF HAWAII COAST AND LOWER SLOPES-

CITY           SKY/WX    TMP DP  RH WIND       PRES   REMARKS
KAILUA KONA    MOCLDY    81  73  78 S7        29.93R
HILO           MOCLDY    78  71  79 W6        29.95R
HONOKAA*       NOT AVBL
KAWAIHAE MWT*    N/A     82 N/A N/A SE7         N/A
KAWAIHAE*        N/A     82 N/A N/A SW1         N/A
SOUTH POINT*     N/A     73 N/A N/A NE7         N/A
UPOLU AIRPORT*   N/A    N/A N/A N/A E12G17      N/A
KAMUELA*       MOCLDY    68  64  88 NE9       30.07R
HAKALAU*         N/A     57  56  98 S1          N/A
KALOKO-HONOKO*   N/A     79  72  78 E3        29.92R
PALI 2*          N/A     68  66  94 NE6G12      N/A
KEALAKOMO*       N/A     81  72  74 E8          N/A
KAUPULEHU*     NOT AVBL
KAPAPALA*        N/A     71  69  93 CALM        N/A
LOWER KAHUKU*  NOT AVBL
PUHE CS*       NOT AVBL
PUHO CS*         N/A     76  70  81 E3          N/A
PTA KEAMUKU*     N/A     66  64  94 NE6         N/A
WAIKOLOA*      NOT AVBL
$$

HIZ027>028-190700-
BIG ISLAND OF HAWAII INTERIOR AND SUMMMITS-

CITY           SKY/WX    TMP DP  RH WIND       PRES   REMARKS
BRADSHAW FIELD MOCLDY    61  59  91 W2        30.31R
MK VISITOR CEN NOT AVBL
MAUNA KEA*       N/A     41  14  33 W14         N/A
MAUNA LOA*       N/A     45  45 100 MISG        N/A
MAUNA LOA 1*     N/A     46  45  93 MISG        N/A
PTA KIPUKA*      N/A    N/A N/A N/A NW3G9       N/A
PTA RANGE 17*    N/A     61  59  94 NW6         N/A
PTA WEST*        N/A     64  63  94 NW6G14      N/A
NENE CABIN*    NOT AVBL
AHUMOA*        NOT AVBL
PTA PORTABLE*  NOT AVBL
PUU MALI*      NOT AVBL
$$

HIC003-190700-
NORTHWEST ISLANDS-

CITY           SKY/WX    TMP DP  RH WIND       PRES   REMARKS
MIDWAY ISLAND  CLEAR     81  73  78 E7        30.07R
MIDWAY NOS*    NOT AVBL
FRENCH FRIGATE NOT AVBL
$$

PHZ110>124-180-190700-
BUOY REPORTS

STATION/POSITION TIME  TEMP    WIND        PRES    WAVE   SWELL
                       AIR SEA DIR/SP/G            HT/PER HT/DIR
                 (UTC) (F)     (DEG/KT/KT) (MB)    (FT/S) (FT/D)
BUOY 51001       NOT AVBL
BUOY 51101       NOT AVBL
BUOY 51100       0600   80 81   90/ 10/ 12 1014.5R
BUOY 51003       0600   82 84   50/  2/  6 1013.8R   5/11   5
BUOY 51004       0547   80 81   90/ 14/ 17 1012.8R   6/10   5/ 10
BARBERS PT BUOY  NOT AVBL
WAIMEA BAY BUOY  0600      82                N/A     4/ 9   2/340
KAILUA BAY BUOY  0600      83                N/A     5/ 9   2/ 30
LANAI BUOY       NOT AVBL
BARBERS PT 2     0600      83                N/A     3/13   3/190
PAUWELA MAUI     0600      82                N/A     5/10   2/ 20
HILO             0600      83                N/A     5/10   3/ 30
KANEOHE BAY BUOY NOT AVBL
HANALEI KAUAI    NOT AVBL
KAHULUI HARBOR   0600   80 84   50/  8/ 10 1013.9R
HONOLULU HARBOR  0600   80      60/  3/  4 1014.3R
KILO NALU        NOT AVBL
HILO HARBOR      0600   77     270/  8/ 10 1013.7R
MOKUOLOE         0600      85              1014.4R
NAWILIWILI       0600      85                N/A
WHOTS BUOY       NOT AVBL
BUOY 51028       NOT AVBL
$$

......................KEY........................................
  SKY/WX - SKY CONDITIONS/PRESENT WEATHER
  TMP    - TEMPERATURE IN FAHRENHEIT
  DWPT   - DEWPOINT IN FAHRENHEIT
  RH     - RELATIVE HUMIDITY IN PERCENT
  WIND   - DIRECTION AND SPEED /MPH FOR ISLANDS...KTS FOR BUOYS/
  PRES   - MEAN SEA LEVEL PRESSURE IN INCHES OF HG
  VSB    - VISIBILITY IN MILES
  HX     - HEAT INDEX
  WCI    - WIND CHILL INDEX
  VRB    - VARIABLE WIND DIRECTION
  N/A    - NOT AVAILABLE


USA.gov is the U.S. government's official web portal to all federal, state and local government web resources and services.